Weather History for Fort Polk, LA

Change the Weather History Date:

Saturday, March 23, 2013

  Actual Average (KPOE) Record (KPOE)
Temperature  
Mean Temperature 66 °F -  
Max Temperature 72 °F 69 °F 82 °F (2011)
Min Temperature 60 °F 49 °F 35 °F (2002)
Cooling Degree Days 1    
Growing Degree Days 16 (Base 50)    
Moisture  
Dew Point 63 °F    
Average Humidity 87    
Maximum Humidity 100    
Minimum Humidity 76    
Precipitation  
Precipitation 0.01 in - - ()
Sea Level Pressure  
Sea Level Pressure 29.73 in    
Wind  
Wind Speed 1 mph (East)    
Max Wind Speed 6 mph    
Max Gust Speed -    
Visibility 7 miles    
Events Rain    
Averages and records for this station are not official NWS values.
T = Trace of Precipitation, MM = Missing Value Source: NWS Daily Summary

Daily Weather History Graph

Daily Weather History Graph

Search for Another Location

Airport:

Trip Planner

Search our weather history database for the weather conditions in past years. The results will help you decide how hot, cold, wet, or windy it might be!

Date:

Astronomy

Mar. 23, 2013 Rise Set
Actual Time 7:11 AM CDT 7:25 PM CDT
Civil Twilight 6:47 AM CDT 7:49 PM CDT
Nautical Twilight 6:19 AM CDT 8:17 PM CDT
Astronomical Twilight 5:50 AM CDT 8:46 PM CDT
Moon 4:04 PM CDT (3/23) 4:34 AM CDT (3/23)
Length of Visible Light 13h 02m
Length of Day
12h 13m
Waxing Gibbous, 85% of the Moon is Illuminated
Mar 23
Waxing Gibbous
Mar 27
Full
Apr 2
Last Quarter
Apr 10
New
Apr 18
First Quarter

Hourly Weather History & Observations

Time (CDT) Temp. Dew Point Humidity Pressure Visibility Wind Dir Wind Speed Gust Speed Precip Events Conditions
12:02 AM 66.2 °F 64.4 °F 94% 29.75 in 0.8 mi Calm Calm - N/A   Overcast
12:11 AM 66.2 °F 64.4 °F 94% 29.75 in 1.2 mi Calm Calm - N/A   Overcast
12:18 AM 68.0 °F 64.4 °F 88% 29.75 in 3.0 mi Calm Calm - N/A   Overcast
12:33 AM 66.2 °F 64.4 °F 94% 29.75 in 4.0 mi Calm Calm - N/A   Overcast
12:43 AM 66.2 °F 66.2 °F 100% 29.75 in 1.8 mi Calm Calm - N/A   Overcast
12:54 AM 68.0 °F 66.0 °F 93% 29.83 in 1.0 mi Calm Calm - N/A   Mist
1:03 AM 68.0 °F 66.2 °F 94% 29.75 in 0.8 mi Calm Calm - N/A   Mist
1:17 AM 68.0 °F 66.2 °F 94% 29.75 in 1.0 mi South 4.6 mph - N/A   Mist
1:39 AM 68.0 °F 66.2 °F 94% 29.75 in 2.5 mi Variable 3.5 mph - N/A   Overcast
1:50 AM 68.0 °F 66.2 °F 94% 29.75 in 3.0 mi Calm Calm - N/A   Overcast
1:54 AM 68.0 °F 66.0 °F 93% 29.83 in 3.0 mi South 3.5 mph - N/A   Overcast
2:18 AM 68.0 °F 66.2 °F 94% 29.74 in 6.0 mi Calm Calm - N/A   Overcast
2:54 AM 69.1 °F 66.0 °F 90% 29.82 in 8.0 mi Calm Calm - N/A   Overcast
3:19 AM 69.8 °F 66.2 °F 88% 29.72 in 8.0 mi Calm Calm - N/A   Overcast
3:54 AM 69.1 °F 66.0 °F 90% 29.78 in 7.0 mi South 3.5 mph - N/A   Overcast
4:25 AM 69.8 °F 66.2 °F 88% 29.69 in 8.0 mi Calm Calm - N/A   Overcast
4:51 AM 69.8 °F 66.2 °F 88% 29.70 in 9.0 mi Calm Calm - N/A   Overcast
4:54 AM 69.1 °F 66.0 °F 90% 29.78 in 9.0 mi Calm Calm - N/A   Overcast
5:16 AM 69.8 °F 64.4 °F 83% 29.70 in 9.0 mi Calm Calm - N/A   Overcast
5:54 AM 68.0 °F 64.9 °F 90% 29.79 in 10.0 mi Calm Calm - N/A   Overcast
6:02 AM 68.0 °F 64.4 °F 88% 29.71 in 9.0 mi Calm Calm - N/A   Overcast
6:37 AM 68.0 °F 64.4 °F 88% 29.71 in 8.0 mi Calm Calm - N/A   Overcast
6:50 AM 68.0 °F 64.4 °F 88% 29.71 in 9.0 mi Calm Calm - N/A   Overcast
6:54 AM 68.0 °F 64.9 °F 90% 29.79 in 10.0 mi NE 3.5 mph - N/A   Overcast
7:04 AM 68.0 °F 64.4 °F 88% 29.72 in 9.0 mi Calm Calm - N/A   Overcast
7:15 AM 68.0 °F 64.4 °F 88% 29.72 in 7.0 mi Calm Calm - N/A   Overcast
7:54 AM 66.0 °F 63.0 °F 90% 29.83 in 6.0 mi Calm Calm - N/A   Overcast
8:06 AM 66.2 °F 62.6 °F 88% 29.76 in 4.0 mi Calm Calm - 0.00 in Rain Light Rain
8:54 AM 63.0 °F 60.1 °F 90% 29.85 in 5.0 mi Variable 3.5 mph - 0.00 in   Overcast
9:43 AM 62.6 °F 59.0 °F 88% 29.78 in 6.0 mi NE 3.5 mph - N/A   Overcast
9:54 AM 64.0 °F 60.1 °F 87% 29.86 in 7.0 mi Calm Calm - N/A   Overcast
10:05 AM 64.4 °F 60.8 °F 88% 29.77 in 8.0 mi Calm Calm - N/A   Overcast
10:19 AM 64.4 °F 60.8 °F 88% 29.77 in 9.0 mi Variable 3.5 mph - N/A   Overcast
10:40 AM 66.2 °F 60.8 °F 83% 29.76 in 10.0 mi Variable 4.6 mph - N/A   Overcast
10:54 AM 66.9 °F 60.1 °F 79% 29.85 in 10.0 mi ENE 3.5 mph - N/A   Overcast
11:54 AM 66.0 °F 60.1 °F 81% 29.83 in 9.0 mi Calm Calm - N/A   Overcast
12:54 PM 64.9 °F 59.0 °F 81% 29.81 in 9.0 mi Calm Calm - N/A   Overcast
1:11 PM 64.4 °F 59.0 °F 83% 29.71 in 1.8 mi NE 3.5 mph - 0.00 in Rain Light Rain
1:21 PM 62.6 °F 60.8 °F 94% 29.70 in 2.0 mi Calm Calm - 0.00 in Rain Light Rain
1:28 PM 62.6 °F 60.8 °F 94% 29.70 in 2.0 mi Calm Calm - 0.00 in Rain Light Rain
1:36 PM 64.4 °F 60.8 °F 88% 29.69 in 3.0 mi Calm Calm - 0.00 in   Overcast
1:54 PM 64.9 °F 62.1 °F 90% 29.76 in 5.0 mi Calm Calm - 0.00 in   Overcast
2:54 PM 66.0 °F 62.1 °F 87% 29.72 in 6.0 mi Variable 4.6 mph - N/A   Overcast
3:22 PM 68.0 °F 62.6 °F 83% 29.62 in 8.0 mi Calm Calm - N/A   Overcast
3:54 PM 70.0 °F 62.1 °F 76% 29.69 in 10.0 mi Calm Calm - N/A   Overcast
4:13 PM 69.8 °F 62.6 °F 78% 29.60 in 10.0 mi Calm Calm - N/A   Overcast
4:20 PM 69.8 °F 62.6 °F 78% 29.59 in 10.0 mi Calm Calm - N/A   Overcast
4:54 PM 72.0 °F 64.0 °F 76% 29.65 in 10.0 mi East 3.5 mph - N/A   Mostly Cloudy
5:31 PM 71.6 °F 64.4 °F 78% 29.57 in 10.0 mi Calm Calm - N/A   Overcast
5:54 PM 72.0 °F 64.0 °F 76% 29.65 in 10.0 mi Calm Calm - N/A   Overcast
6:54 PM 71.1 °F 64.9 °F 81% 29.65 in 10.0 mi Calm Calm - N/A   Overcast
7:54 PM 70.0 °F 64.9 °F 84% 29.66 in 10.0 mi Calm Calm - N/A   Overcast
8:38 PM 69.8 °F 64.4 °F 83% 29.61 in 9.0 mi Calm Calm - 0.01 in Rain Light Rain
8:54 PM 68.0 °F 64.0 °F 87% 29.70 in 8.0 mi Calm Calm - 0.01 in   Overcast
9:01 PM 68.0 °F 64.4 °F 88% 29.61 in 8.0 mi Variable 3.5 mph - N/A   Overcast
9:54 PM 64.9 °F 61.0 °F 87% 29.72 in 10.0 mi Calm Calm - N/A   Overcast
10:18 PM 64.4 °F 59.0 °F 83% 29.65 in 10.0 mi Variable 5.8 mph - N/A   Overcast
10:31 PM 62.6 °F 59.0 °F 88% 29.65 in 10.0 mi Variable 4.6 mph - N/A   Overcast
10:54 PM 62.1 °F 57.9 °F 86% 29.75 in 10.0 mi Variable 3.5 mph - N/A   Overcast
11:22 PM 60.8 °F 55.4 °F 82% 29.67 in 10.0 mi Calm Calm - N/A   Overcast
11:51 PM 60.8 °F 55.4 °F 82% 29.65 in 10.0 mi Variable 4.6 mph - N/A   Overcast
11:54 PM 60.1 °F 55.0 °F 83% 29.73 in 10.0 mi NNE 4.6 mph - N/A   Overcast